Погода в Биряково

Россия / Вологодская область     59°35′01″N   41°29′32″E
темп.,
°C
ветер,
м/с
пор.,
м/с
влажн.,
%
обл.,
%
осадки,
мм/ч
давл.,
гПа
погр.,
м
17 июня, чт
чт1700:00+10з3106075 0.0 1016211
03:00+8зсз39670 0.0 1018202
06:00+11зсз38620 0.0 1019292
09:00+17сз512423 0.0 10201785
12:00+17зсз594670 0.0 10211567
15:00+18ссз474685 0.0 10221147
18:00+19ссз35504 0.0 10221177
21:00+13сз00720 0.0 102411
18 июня, пт
пт1800:00+10зюз22775 0.0 102513
03:00+9з118542 0.0 102611
06:00+13юз137297 0.0 1026139
09:00+20зюз3650100 0.0 1025773
12:00+23зюз5742100 0.0 10241511
15:00+25з57401 0.0 10221807
18:00+24зюз4749100 0.0 10211308
21:00+19юз31271100 0.0 1021399
19 июня, сб
сб1900:00+16юз3118071 0.0 1021256
03:00+14зюз39885 0.0 1021180
06:00+18зюз311735 0.0 1021320
09:00+24з59510 0.0 1020929
12:00+27з68390 0.0 10201784
15:00+28з68370 0.0 10192116
18:00+27зюз59450 0.0 10181132
21:00+20зюз39735 0.0 1019174
20 июня, вс
вс2000:00+17зюз39860 0.0 1020171
03:00+15з24870 0.0 102164
06:00+19зюз25730 0.0 1021175
09:00+25зюз35530 0.0 1020655
12:00+28зюз46375 0.0 10202000
15:00+29з46365 0.0 10192184
18:00+28зюз36485 0.0 10181233
21:00+21юз39765 0.0 1018176
21 июня, пн
пн2100:00+19юз210845 0.0 1018233
03:00+17юз28880 0.0 1018162
06:00+20зюз36750 0.0 1018206
09:00+26зюз36531 0.0 1018770
12:00+29з463912 0.0 10172535
15:00+29зюз464061 0.0 10171901
18:00+25зсз386114 0.0 1017366
21:00+20зюз27861 0.6 1018127